[[{"header":{"parameterUnit":"m.s-1","parameterCategory":1,"la1":30.2991,"la2":30.254,"lo1":-89.0895,"lo2":-89.0444,"dy":0.0017,"dx":0.0017,"nx":28,"ny":28,"refTime":"2026-02-10T03:00:00:Z","depth":0,"parameterNumber":2,"parameterNumberName":"U-component_of_WINDS"},"data":[0,0,0,0,0,0,0,0,0,0,0,0,0,0,0,0,0,0,0,0,0,0,0,0,0,0,0,0,0,0,0,0,0,0,0,0,0,0,0,0,0,0,0,0,0,0,0,0,0,0,0,0,0,0,0,0,0,0,1.6505,1.6506,0,1.6591,1.6592,1.6593,1.6566,1.6564,1.6563,1.6561,1.665,1.6654,1.6658,0,0,0,0,0,0,0,0,0,0,0,0,0,1.6317,1.6321,1.6505,1.6506,1.6507,1.6591,1.6592,1.6593,1.6567,1.6564,1.6562,1.656,1.6648,1.6653,1.6658,0,0,0,0,0,0,0,0,0,0,0,0,0,1.64,1.6322,1.6504,1.6504,1.6504,1.6591,1.6592,1.6594,1.6567,1.6564,1.6562,1.6559,1.6647,1.6653,1.6659,1.6751,0,0,1.6677,1.668,0,0,0,0,0,0,0,0,1.6396,1.6407,1.6503,1.6504,1.6505,1.6565,1.6558,1.6646,1.6568,1.6543,1.6561,1.6558,1.6624,1.6631,1.6654,1.6755,1.6759,1.6678,1.6681,1.6684,1.6686,0,0,0,0,0,0,0,1.639,1.6404,1.6539,1.6504,1.6505,1.6499,1.6508,1.6575,1.6598,1.6545,1.6543,1.6554,1.6624,1.6648,1.6656,1.676,1.6678,1.6683,1.6687,1.6689,1.6942,1.6945,0,0,0,0,0,0,1.6383,1.6399,1.6536,1.6541,1.6442,1.6505,1.6514,1.6549,1.6597,1.6602,1.6556,1.6552,1.6639,1.6649,1.6659,1.677,1.6684,1.669,1.6693,1.6939,1.6942,1.6946,0,0,0,0,0,0,1.638,1.6396,1.6533,1.647,1.6487,1.6511,1.6549,1.6552,1.6576,1.6605,1.6609,1.6577,1.6637,1.665,1.6728,1.6773,1.6692,1.6698,1.6935,1.694,1.6944,1.6994,0,0,0,0,0,0,1.6374,1.6395,1.643,1.6471,1.649,1.6601,1.6552,1.6555,1.6586,1.6582,1.6626,1.663,1.6636,1.6719,1.6734,1.678,1.6703,1.6931,1.6937,1.6943,1.6988,1.7,1.7009,0,0,0,0,0,1.6368,1.6441,1.6432,1.6449,1.6535,1.6604,1.6615,1.662,1.659,1.6626,1.6645,1.6629,1.6765,1.6727,1.6744,1.6792,1.6928,1.6936,1.6942,1.6984,1.6997,1.7009,0,0,0,0,0,0,1.6405,1.6446,1.6437,1.6525,1.6561,1.6599,1.6644,1.6634,1.6679,1.6673,1.6678,1.6688,1.6768,1.6788,1.6745,1.6884,1.6843,1.6853,1.6868,1.6882,1.6892,1.6886,1.6708,0,0,0,0,0,1.6423,1.6476,1.6509,1.6583,1.6602,1.662,1.665,1.6651,1.6688,1.6703,1.6728,1.6765,1.6816,1.685,1.6899,1.6991,1.7,1.7032,1.7043,1.7051,1.706,1.7111,1.7125,1.6968,1.6968,1.6968,0,0,1.6462,1.6491,1.6524,1.6592,1.662,1.6674,1.6633,1.6692,1.6732,1.6712,1.6788,1.6807,1.6849,1.6934,1.6973,1.6953,1.7106,1.706,1.7066,1.7071,1.7119,1.7134,1.7147,1.6973,1.6972,1.6971,0,0,1.656,1.6587,1.6653,1.6682,1.6724,1.6736,1.6751,1.6791,1.6803,1.6879,1.6865,1.6913,1.7001,1.7031,1.7058,1.7168,1.7155,1.7183,1.7238,1.7287,1.73,1.7311,1.735,1.7364,1.7192,1.7192,1.7193,0,1.6603,1.6684,1.6688,1.6748,1.6779,1.6763,1.6829,1.6857,1.6913,1.6935,1.6911,1.7021,1.7048,1.7141,1.7168,1.719,1.7208,1.7179,1.7298,1.7309,1.7319,1.7357,1.7372,1.7196,1.7195,1.7195,1.7195,0,1.6735,1.6792,1.6839,1.6894,1.693,1.6993,1.7006,1.7042,1.7039,1.7053,1.713,1.7162,1.7217,1.7239,1.7237,1.7331,1.7318,1.7296,1.7254,1.7337,1.7373,1.7387,1.72,1.7199,1.7198,1.7197,0,0,1.686,1.6916,1.6933,1.6958,1.7004,1.7048,1.711,1.7163,1.7194,1.7234,1.7286,1.7361,1.7341,1.7372,1.7373,1.7416,1.7501,1.7389,1.739,1.7409,1.7608,1.7624,1.7641,1.7493,1.7496,1.7498,1.7605,0,1.6963,1.7072,1.7077,1.7177,1.7229,1.7215,1.7269,1.7303,1.7318,1.7364,1.738,1.7433,1.7403,1.7421,1.7463,1.7482,1.7541,1.7474,1.7542,1.7545,1.7533,1.766,1.7677,1.7777,1.7618,1.7621,1.7622,0,1.7097,1.7141,1.7246,1.7284,1.7307,1.7355,1.7405,1.7449,1.7488,1.7495,1.7529,1.7524,1.7588,1.7544,1.7632,1.7586,1.7614,1.7628,1.7632,1.7639,1.7589,1.7671,1.7808,1.7823,1.7644,1.7643,1.7641,0,1.7179,1.7264,1.7337,1.7359,1.7405,1.744,1.7461,1.7496,1.7528,1.7572,1.7592,1.7643,1.767,1.7709,1.7718,1.7685,1.7806,1.7763,1.7815,1.7815,1.7842,1.784,1.7986,1.7859,1.7858,1.7858,1.7858,0,1.7293,1.7358,1.7375,1.742,1.7493,1.7497,1.7569,1.7587,1.7619,1.7668,1.7658,1.7704,1.7713,1.7761,1.7768,1.784,1.7852,1.7861,1.7862,1.7862,1.7861,1.7881,1.7874,1.7862,1.7861,1.786,1.786,0,1.7397,1.741,1.749,1.7527,1.7538,1.759,1.7622,1.7665,1.7679,1.7741,1.7756,1.7776,1.7833,1.7845,1.7911,1.7916,1.8002,1.7996,1.7989,1.7989,1.8041,1.8036,1.8205,1.8228,1.8085,1.8086,1.8087,0,1.7469,1.7519,1.7562,1.7594,1.7616,1.7668,1.77,1.7707,1.7741,1.7788,1.7826,1.7881,1.7925,1.8016,1.8037,1.8088,1.8083,1.8139,1.8091,1.809,1.8085,1.8082,1.8087,1.8149,1.815,1.8151,1.8152,0,1.7597,1.7601,1.7648,1.7698,1.7737,1.7777,1.7814,1.7841,1.7852,1.7891,1.7948,1.7983,1.8051,1.8105,1.8156,1.8178,1.8168,1.8167,1.8182,1.8183,1.8177,1.8182,1.8015,1.8164,1.8163,1.8162,1.8161,1.8161,1.7688,1.7731,1.7768,1.7821,1.785,1.7885,1.7928,1.7947,1.7994,1.805,1.8051,1.8113,1.815,1.8217,1.8242,1.8291,1.8273,1.8295,1.83,1.8306,1.8311,1.8169,1.83,1.83,1.8299,1.8299,1.8299,0,1.7816,1.7838,1.7887,1.794,1.7981,1.7967,1.8008,1.8044,1.8099,1.8134,1.8178,1.8244,1.8297,1.8322,1.8374,1.8408,1.8405,1.8422,1.842,1.8425,1.8323,1.8305,1.8424,1.8424,1.8424,1.8424,1.8424,1.8424,1.7887,1.796,1.7969,1.8056,1.8078,1.8139,1.8164,1.8196,1.8224,1.8298,1.8342,1.8358,1.8389,1.8443,1.8491,1.8497,1.8517,1.8537,1.8541,1.8445,1.8432,1.842,1.8404,1.8541,1.8541,1.8639,1.864,1.8641]},{"header":{"parameterUnit":"m.s-1","parameterCategory":1,"la1":30.2991,"la2":30.254,"lo1":-89.0895,"lo2":-89.0444,"dy":0.0017,"dx":0.0017,"nx":28,"ny":28,"refTime":"2026-02-10T03:00:00:Z","depth":0,"parameterNumber":3,"parameterNumberName":"V-component_of_WINDS"},"data":[0,0,0,0,0,0,0,0,0,0,0,0,0,0,0,0,0,0,0,0,0,0,0,0,0,0,0,0,0,0,0,0,0,0,0,0,0,0,0,0,0,0,0,0,0,0,0,0,0,0,0,0,0,0,0,0,0,0,0.0359,0.0361,0,0.0539,0.0541,0.0543,0.0559,0.0557,0.0555,0.0553,0.0741,0.0748,0.0755,0,0,0,0,0,0,0,0,0,0,0,0,0,0.0032,0.0038,0.0359,0.0361,0.0363,0.0538,0.0541,0.0543,0.0559,0.0557,0.0555,0.0552,0.0739,0.0747,0.0755,0,0,0,0,0,0,0,0,0,0,0,0,0,0.0189,0.004,0.0358,0.0392,0.0397,0.0538,0.0541,0.0544,0.056,0.0557,0.0554,0.0551,0.0736,0.0746,0.0756,0.0877,0,0,0.0787,0.0792,0,0,0,0,0,0,0,0,0.018,0.0201,0.0385,0.039,0.0396,0.0523,0.0494,0.0656,0.0561,0.0498,0.0553,0.055,0.0671,0.0687,0.0727,0.0885,0.0894,0.0788,0.0795,0.0799,0.0802,0,0,0,0,0,0,0,0.0169,0.0193,0.043,0.0388,0.0394,0.0399,0.0418,0.0525,0.0599,0.0503,0.0505,0.0526,0.0674,0.0717,0.0731,0.0896,0.0788,0.0797,0.0803,0.0807,0.1162,0.1165,0,0,0,0,0,0,0.0151,0.0184,0.0424,0.0435,0.0279,0.0408,0.0429,0.0485,0.0598,0.0612,0.0528,0.0526,0.0701,0.0719,0.0738,0.0886,0.0799,0.0808,0.0814,0.1158,0.1162,0.1166,0,0,0,0,0,0,0.0144,0.0173,0.0417,0.031,0.0342,0.0416,0.0479,0.049,0.0534,0.0616,0.063,0.0559,0.0699,0.0724,0.0842,0.0893,0.0813,0.0822,0.1154,0.116,0.1164,0.1183,0,0,0,0,0,0,0.0135,0.017,0.0216,0.0311,0.0347,0.0517,0.0483,0.0496,0.0551,0.055,0.0648,0.0662,0.0699,0.0826,0.0852,0.0905,0.083,0.115,0.1157,0.1163,0.1178,0.1188,0.1196,0,0,0,0,0,0.0123,0.0215,0.0218,0.0247,0.0406,0.052,0.0541,0.058,0.0555,0.0602,0.0655,0.0659,0.0883,0.0838,0.0867,0.0925,0.1147,0.1155,0.1162,0.1174,0.1186,0.1196,0,0,0,0,0,0,0.0126,0.0229,0.0233,0.0358,0.043,0.0522,0.0583,0.0592,0.0673,0.0669,0.0716,0.0738,0.0854,0.0901,0.085,0.1046,0.1012,0.1026,0.1012,0.1024,0.1033,0.102,0.0839,0,0,0,0,0,0.0141,0.0224,0.0309,0.0412,0.0447,0.0509,0.056,0.0584,0.0661,0.0691,0.0753,0.0828,0.0915,0.0972,0.1057,0.1184,0.1206,0.1238,0.1247,0.1254,0.1266,0.1336,0.1351,0.119,0.119,0.119,0,0,0.0174,0.024,0.0289,0.0414,0.0472,0.0557,0.0534,0.0626,0.069,0.0706,0.0821,0.0868,0.0955,0.1078,0.1135,0.1121,0.1314,0.1263,0.1268,0.1277,0.1345,0.136,0.1374,0.1195,0.1194,0.1194,0,0,0.0277,0.0334,0.0426,0.0484,0.0572,0.0612,0.0634,0.0725,0.0757,0.0872,0.0885,0.0962,0.1111,0.1172,0.1223,0.1346,0.1353,0.1373,0.1421,0.1489,0.1502,0.1513,0.1557,0.1573,0.1384,0.1384,0.1384,0,0.0306,0.0435,0.0472,0.0563,0.0617,0.0633,0.0727,0.0782,0.0894,0.0931,0.0912,0.1099,0.1159,0.1296,0.1325,0.1366,0.1393,0.1363,0.1496,0.1508,0.152,0.1562,0.1579,0.1386,0.1385,0.1385,0.1385,0,0.0467,0.0555,0.0619,0.0724,0.0786,0.0877,0.0929,0.0987,0.1005,0.1047,0.1164,0.1235,0.1335,0.1369,0.1388,0.1509,0.1497,0.1487,0.1454,0.1536,0.1577,0.1594,0.1388,0.1387,0.1387,0.1387,0,0,0.0579,0.0702,0.0725,0.0773,0.087,0.094,0.1031,0.1127,0.1175,0.1251,0.133,0.1455,0.1445,0.1503,0.1529,0.1588,0.1681,0.1571,0.1574,0.1589,0.1818,0.1826,0.1844,0.1685,0.1689,0.1691,0.1811,0,0.0693,0.0856,0.0892,0.1033,0.1116,0.1131,0.1211,0.1279,0.1321,0.1397,0.1443,0.153,0.1512,0.1546,0.1605,0.1657,0.1728,0.1649,0.176,0.1763,0.1739,0.1866,0.1874,0.1984,0.1827,0.183,0.1832,0,0.0849,0.0926,0.1075,0.116,0.1196,0.1268,0.1357,0.143,0.1507,0.1533,0.1596,0.1615,0.1711,0.1672,0.1806,0.1751,0.1798,0.183,0.1835,0.1848,0.1804,0.1883,0.202,0.2037,0.1857,0.1855,0.1854,0,0.0916,0.1058,0.1165,0.1205,0.1307,0.1357,0.1402,0.1477,0.1531,0.161,0.1645,0.1734,0.1783,0.1852,0.1894,0.1862,0.2025,0.1989,0.2049,0.2048,0.2085,0.2082,0.2232,0.2113,0.2113,0.2112,0.2112,0,0.1041,0.1132,0.1197,0.1263,0.1364,0.1404,0.1504,0.1549,0.1615,0.1691,0.1709,0.1779,0.1831,0.1908,0.1942,0.2047,0.2069,0.2093,0.2101,0.2092,0.2089,0.2125,0.2119,0.2117,0.2116,0.2115,0.2114,0,0.1134,0.1181,0.1299,0.1385,0.1408,0.148,0.1554,0.1619,0.1659,0.1754,0.1779,0.1843,0.1935,0.1983,0.2099,0.2121,0.224,0.2243,0.2213,0.2217,0.2275,0.2269,0.2454,0.2481,0.2343,0.2344,0.2345,0,0.1211,0.1281,0.1373,0.1425,0.147,0.1552,0.1608,0.1649,0.1706,0.1798,0.1852,0.1945,0.2021,0.2168,0.2225,0.2313,0.2319,0.2378,0.2333,0.2321,0.2321,0.2317,0.2324,0.2386,0.2388,0.2389,0.239,0,0.1343,0.1362,0.1441,0.1527,0.1592,0.1662,0.1732,0.1773,0.1826,0.1889,0.1982,0.2041,0.2158,0.225,0.2342,0.2389,0.2399,0.2403,0.2422,0.2414,0.2394,0.2406,0.2236,0.2399,0.2398,0.2397,0.2397,0.2397,0.1431,0.1494,0.1568,0.1655,0.1711,0.1775,0.184,0.1887,0.1966,0.2063,0.2083,0.2182,0.2256,0.2381,0.243,0.2508,0.2496,0.2523,0.253,0.2537,0.2539,0.238,0.2525,0.2525,0.2524,0.2524,0.2524,0,0.1565,0.1613,0.1692,0.1787,0.1855,0.1856,0.1933,0.199,0.2076,0.2145,0.2219,0.2326,0.2414,0.2477,0.2567,0.2618,0.2624,0.264,0.2638,0.2648,0.2545,0.252,0.2633,0.2633,0.2633,0.2633,0.2633,0.2633,0.1642,0.1748,0.1775,0.1909,0.1957,0.2053,0.2096,0.2155,0.221,0.2328,0.2401,0.2441,0.2508,0.2602,0.2683,0.27,0.2732,0.2748,0.2764,0.2667,0.2656,0.2645,0.2621,0.2754,0.2754,0.2862,0.2863,0.2863]}]]